Juneau, AK

8:42 AM AKDT on April 27, 2017 (GMT -0800)
Juneau International

Weather History for PAJN - December, 2013

Change the Weather History Date:

Monday, December 16, 2013

  Actual Average Record
Temperature  
Mean Temperature 33 °F 30 °F  
Max Temperature 34 °F 34 °F 46 °F (1954)
Min Temperature 31 °F 26 °F -9 °F (1964)
Degree Days  
Heating Degree Days 32 35  
Month to date heating degree days 612 552  
Since 1 July heating degree days 3085 3183  
Moisture  
Dew Point 28 °F    
Average Humidity 84    
Maximum Humidity 92    
Minimum Humidity 75    
Precipitation  
Precipitation 0.02 in 0.19 in 1.27 in (2004)
Month to date precipitation 3.86 3.21  
Year to date precipitation 69.08 59.64  
Snow  
Snow 0.50 in 0.50 in 12.20 in (1990)
Month to date snowfall 18.6 8.0  
Since 1 July snowfall 37.8 21.9  
Snow Depth 6.00 in    
Sea Level Pressure  
Sea Level Pressure 29.87 in    
Wind  
Wind Speed 6 mph (ENE)    
Max Wind Speed 14 mph    
Max Gust Speed 19 mph    
Visibility 9 miles    
Events Snow    
T = Trace of Precipitation, MM = Missing Value Source: NWS Daily Summary

Daily Weather History Graph

Daily Weather History Graph

Search for Another Location

Airport or City:

Trip Planner

Search our weather history database for the weather conditions in past years. The results will help you decide how hot, cold, wet, or windy it might be!

Date:

Astronomy

Dec. 16, 2013 Rise Set
Actual Time 8:42 AM AKST 3:05 PM AKST
Civil Twilight 7:49 AM AKST 3:58 PM AKST
Nautical Twilight 6:56 AM AKST 4:51 PM AKST
Astronomical Twilight 6:07 AM AKST 5:40 PM AKST
Moon 3:17 PM AKST (12/16) 7:41 AM AKST (12/16)
Length of Visible Light 8h 09m
Length of Day
6h 23m
Full, 100% of the Moon is Illuminated
Dec 16
Full
Dec 17
Full
Dec 25
Last Quarter
Jan 1
New
Jan 7
First Quarter

Hourly Weather History & Observations

Time (AKST) Temp. Windchill Dew Point Humidity Pressure Visibility Wind Dir Wind Speed Gust Speed Precip Events Conditions
12:42 AM 32.0 °F 28.7 °F 28.9 °F 88% 29.94 in 2.5 mi NW 3.5 mph - 0.00 in Snow Light Snow
12:53 AM 32.0 °F 26.4 °F 28.9 °F 88% 29.95 in 2.5 mi NE 5.8 mph - 0.01 in Snow Light Snow
1:28 AM 32.0 °F 25.6 °F 28.9 °F 88% 29.96 in 9.0 mi ENE 6.9 mph - 0.00 in   Overcast
1:53 AM 32.0 °F 26.4 °F 28.9 °F 88% 29.97 in 10.0 mi NE 5.8 mph - 0.00 in   Overcast
3:53 AM 32.0 °F 28.7 °F 28.9 °F 88% 30.00 in 9.0 mi Variable 3.5 mph - 0.00 in   Overcast
4:53 AM 32.0 °F 25.6 °F 28.9 °F 88% 30.00 in 10.0 mi East 6.9 mph - N/A   Overcast
5:53 AM 32.0 °F 24.8 °F 28.0 °F 85% 30.01 in 9.0 mi ENE 8.1 mph - 0.00 in Snow Light Snow
6:53 AM 32.0 °F 23.0 °F 28.0 °F 85% 30.01 in 10.0 mi ENE 11.5 mph - 0.00 in   Overcast
7:53 AM 32.0 °F 24.8 °F 28.0 °F 85% 30.02 in 7.0 mi ESE 8.1 mph - N/A   Overcast
8:53 AM 32.0 °F 23.0 °F 28.0 °F 85% 30.02 in 5.0 mi East 11.5 mph - 0.00 in Snow Light Snow
9:53 AM 33.1 °F 24.4 °F 28.0 °F 82% 30.02 in 10.0 mi East 11.5 mph - 0.00 in   Mostly Cloudy
10:53 AM 33.1 °F 27.7 °F 27.0 °F 78% 30.01 in 10.0 mi ENE 5.8 mph - N/A   Overcast
11:53 AM 33.1 °F 26.9 °F 28.0 °F 82% 29.99 in 5.0 mi East 6.9 mph - 0.00 in Snow Light Snow
12:53 PM 33.1 °F 27.7 °F 28.9 °F 85% 29.96 in 7.0 mi ENE 5.8 mph - 0.01 in Snow Light Snow
1:53 PM 32.0 °F 25.6 °F 28.9 °F 88% 29.92 in 10.0 mi East 6.9 mph - 0.00 in   Overcast
2:53 PM 33.1 °F 23.9 °F 30.0 °F 89% 29.87 in 10.0 mi East 12.7 mph - 0.00 in Snow Light Snow
3:53 PM 33.1 °F 23.4 °F 30.0 °F 89% 29.83 in 10.0 mi East 13.8 mph - 0.00 in   Overcast
4:53 PM 33.1 °F 26.9 °F 30.0 °F 89% 29.78 in 10.0 mi ENE 6.9 mph - N/A   Overcast
5:53 PM 32.0 °F 28.7 °F 30.0 °F 92% 29.73 in 10.0 mi Variable 3.5 mph - N/A   Overcast
6:53 PM 33.1 °F 23.9 °F 27.0 °F 78% 29.70 in 10.0 mi NNW 12.7 mph - N/A   Overcast
7:53 PM 30.9 °F - 27.0 °F 85% 29.67 in 10.0 mi Calm Calm - N/A   Mostly Cloudy
8:53 PM 30.0 °F 23.2 °F 27.0 °F 88% 29.63 in 10.0 mi West 6.9 mph - N/A   Mostly Cloudy
9:53 PM 30.0 °F 21.1 °F 27.0 °F 88% 29.60 in 10.0 mi West 10.4 mph - N/A   Overcast
10:53 PM 30.0 °F 24.1 °F 26.1 °F 85% 29.60 in 10.0 mi West 5.8 mph - N/A   Overcast
11:53 PM 28.0 °F - 25.0 °F 88% 29.61 in 10.0 mi Calm Calm - N/A   Overcast